Simultaneous Nadir Overpasses (SNOs) Predictions

Prediction of SNOs between METOP-B and NPP Satellite Orbit:

Table of predicted SNOs for the next 14.0 days since TLE Epoch: 12/23/2014
Index Date (METOP-B) Time (METOP-B) Lat,Lon (METOP-B) SZA (METOP-B ) Date (NPP) Time (NPP) Lat,Lon (NPP) SZA (NPP ) Distance(km) Time Diff (sec)
1 12/27/2014 01:06:15 73.74, 157.82 97.06 12/27/2014 01:05:07 73.76, 155.40 97.17 75.20 68
2 12/27/2014 01:56:58 -73.70, -34.96 82.99 12/27/2014 01:55:49 -73.68, -37.08 82.93 66.46 69
3 12/27/2014 02:47:42 73.47, 131.86 96.81 12/27/2014 02:46:31 73.47, 130.70 96.86 36.74 71
4 12/27/2014 03:38:26 -73.38, -61.02 83.28 12/27/2014 03:37:13 -73.39, -61.80 83.24 24.64 73
5 12/27/2014 04:29:09 73.20, 105.92 96.55 12/27/2014 04:27:55 73.18, 105.97 96.54 2.72 74
6 12/27/2014 05:19:51 -73.21, -86.74 83.44 12/27/2014 05:18:39 -73.20, -86.75 83.44 1.28 72
7 12/27/2014 06:10:31 73.19, 80.54 96.53 12/27/2014 06:09:25 73.19, 80.57 96.55 1.55 66
8 12/27/2014 07:01:13 -73.19,-112.12 83.46 12/27/2014 07:00:09 -73.21,-112.15 83.43 2.29 64
9 12/27/2014 07:51:52 73.22, 55.27 96.56 12/27/2014 07:50:55 73.21, 55.17 96.56 3.32 57
10 12/27/2014 08:42:35 -73.18,-137.50 83.48 12/27/2014 08:41:38 -73.17,-137.44 83.48 1.87 57
11 12/27/2014 09:33:14 73.20, 29.89 96.54 12/27/2014 09:32:24 73.17, 29.88 96.52 3.63 50
12 12/27/2014 10:23:57 -73.16,-162.88 83.50 12/27/2014 10:23:08 -73.18,-162.84 83.47 3.13 49
13 12/27/2014 11:14:36 73.18, 4.51 96.52 12/27/2014 11:13:54 73.18, 4.48 96.53 0.85 42
14 12/27/2014 12:05:18 -73.19, 171.85 83.47 12/27/2014 12:04:38 -73.20, 171.76 83.46 2.97 40
15 12/27/2014 12:55:58 73.16, -20.87 96.50 12/27/2014 12:55:24 73.19, -20.91 96.54 3.16 34
16 12/27/2014 13:46:40 -73.17, 146.47 83.49 12/27/2014 13:46:07 -73.16, 146.47 83.51 1.84 33
17 12/27/2014 14:37:20 73.14, -46.25 96.48 12/27/2014 14:36:53 73.15, -46.20 96.49 1.64 27
18 12/27/2014 15:28:02 -73.15, 121.10 83.51 12/27/2014 15:27:37 -73.17, 121.08 83.50 1.52 25
19 12/27/2014 16:18:41 73.18, -71.52 96.51 12/27/2014 16:18:23 73.16, -71.60 96.50 3.20 18
20 12/27/2014 17:09:24 -73.14, 95.72 83.53 12/27/2014 17:09:06 -73.13, 95.79 83.54 2.48 18
21 12/27/2014 18:00:03 73.16, -96.90 96.49 12/27/2014 17:59:53 73.17, -97.00 96.51 3.50 10
22 12/27/2014 18:50:46 -73.12, 70.34 83.55 12/27/2014 18:50:36 -73.14, 70.39 83.53 2.81 10
23 12/27/2014 19:41:25 73.14,-122.28 96.47 12/27/2014 19:41:22 73.13,-122.29 96.46 1.01 3
24 12/27/2014 20:32:07 -73.15, 45.07 83.53 12/27/2014 20:32:06 -73.15, 44.99 83.52 2.47 1
25 12/27/2014 21:22:47 73.12,-147.66 96.45 12/27/2014 21:22:52 73.14,-147.69 96.47 2.46 5
26 12/27/2014 22:13:29 -73.13, 19.69 83.55 12/27/2014 22:13:35 -73.11, 19.70 83.57 2.48 6
27 12/27/2014 23:04:09 73.10,-173.04 96.43 12/27/2014 23:04:21 73.10,-172.98 96.43 2.01 12
28 12/27/2014 23:54:51 -73.11, -5.69 83.57 12/27/2014 23:55:05 -73.12, -5.70 83.56 0.81 14
29 12/28/2014 00:45:30 73.14, 161.69 96.46 12/28/2014 00:45:51 73.12, 161.63 96.44 3.23 21
30 12/28/2014 01:36:13 -73.10, -31.07 83.59 12/28/2014 01:36:34 -73.08, -30.99 83.61 3.13 21
31 12/28/2014 02:26:52 73.12, 136.31 96.44 12/28/2014 02:27:21 73.13, 136.23 96.45 2.89 29
32 12/28/2014 03:17:35 -73.08, -56.45 83.61 12/28/2014 03:18:04 -73.09, -56.38 83.60 2.69 29
33 12/28/2014 04:08:14 73.10, 110.93 96.42 12/28/2014 04:08:50 73.09, 110.94 96.40 1.51 36
34 12/28/2014 04:58:56 -73.11, -81.72 83.58 12/28/2014 04:59:34 -73.10, -81.78 83.59 2.15 38
35 12/28/2014 05:49:36 73.08, 85.55 96.40 12/28/2014 05:50:20 73.10, 85.54 96.41 1.82 44
36 12/28/2014 06:40:18 -73.09,-107.10 83.60 12/28/2014 06:41:03 -73.07,-107.07 83.63 3.12 45
37 12/28/2014 07:30:57 73.06, 60.17 96.38 12/28/2014 07:31:48 73.06, 60.25 96.36 2.50 51
38 12/28/2014 08:21:39 -73.07,-132.48 83.62 12/28/2014 08:22:32 -73.08,-132.47 83.62 0.34 53
39 12/28/2014 09:12:19 73.05, 34.80 96.36 12/28/2014 09:13:18 73.07, 34.85 96.37 3.24 59
40 12/28/2014 10:03:01 -73.06,-157.86 83.64 12/28/2014 10:04:02 -73.09,-157.87 83.62 3.52 61
41 12/28/2014 10:53:40 73.08, 9.53 96.39 12/28/2014 10:54:48 73.08, 9.45 96.38 2.36 68
42 12/28/2014 11:44:23 -73.04, 176.76 83.66 12/28/2014 11:45:31 -73.05, 176.84 83.66 2.75 68
43 12/28/2014 12:35:03 73.01, -15.96 96.32 12/28/2014 12:36:17 73.04, -15.84 96.34 5.46 74
44 12/28/2014 13:25:46 -72.97, 151.28 83.73 12/28/2014 13:27:00 -73.01, 151.55 83.71 9.93 74
45 12/28/2014 14:16:31 72.69, -41.98 96.02 12/28/2014 14:17:41 72.75, -40.60 96.02 46.27 70
46 12/28/2014 15:07:14 -72.65, 125.27 84.02 12/28/2014 15:08:24 -72.72, 126.79 84.02 50.97 70
47 12/28/2014 15:57:58 72.41, -67.87 95.76 12/28/2014 15:59:05 72.45, -65.37 95.71 84.02 67
48 12/28/2014 16:48:41 -72.38, 99.38 84.28 12/28/2014 16:49:47 -72.37, 102.10 84.39 91.88 66
